FLOCK 4A-6 (44094 NORAD) Tracking and Keplerian Element Data

This shows tracking and keplerian element data for the satellite.

Feedback or suggestion? Click here.




ElementValue
Catalog44094
NameFLOCK 4A-6
Epoch Orbit432
Epoch Day119.74266442
Epoch Year2019
RAAN180.0724
Inclination97.4615
Eccentricity0.0011308
Argument of Perigee182.2952
Mean Anonmoly177.8234
Mean Motion15.21891909
Decay Rate8.81E-06
L11 44094U 19018S 19119.74266442 .00000881 00000-0 41753-4 0 9997
L22 44094 97.4615 180.0724 0011308 182.2952 177.8234 15.21891909 4325

Live tracking and technical data element details for FLOCK 4A-6 (NORAD 44094). FLOCK 4A-6 can be tracked NOW for your location showing map with azimuth and elevation plus other details from your city location.

Track the satellite on the map from your city or location and see movement details for azimuth, elevation, latitude, longitude, range, height, and movement on the map or in text.







IsCatalogInMostPopularTable: catalog: 44094, numindb: 36
Update: records affected: 1



GetName: 44094 FLOCK 4A-6

Hit Count: updated at: Tue, 23 Jul 2019 02:36:51 GMT